Weather History for Monett, MO

Change the Weather History Date:

Wednesday, August 7, 2013

  Actual Average (KJLN) Record (KJLN)
Temperature  
Mean Temperature 74 °F 81 °F  
Max Temperature 80 °F 92 °F 107 °F (2011)
Min Temperature 69 °F 70 °F 53 °F (1997)
Degree Days  
Heating Degree Days 0 0  
Month to date heating degree days 0  
Since 1 June heating degree days 5  
Since 1 July heating degree days 0  
Cooling Degree Days 10 16  
Month to date cooling degree days 112  
Year to date cooling degree days 1083  
Since 1 June cooling degree days 903  
Growing Degree Days 24 (Base 50)    
Moisture  
Dew Point 72 °F    
Average Humidity 90    
Maximum Humidity 100    
Minimum Humidity 79    
Precipitation  
Precipitation 0.10 in 0.10 in 2.02 in (1960)
Month to date precipitation 0.69  
Year to date precipitation 28.31  
Sea Level Pressure  
Sea Level Pressure 29.92 in    
Wind  
Wind Speed 7 mph (ESE)    
Max Wind Speed 13 mph    
Max Gust Speed 20 mph    
Visibility 10 miles    
Events Rain , Thunderstorm    
T = Trace of Precipitation, MM = Missing Value Source: NWS Daily Summary

Daily Weather History Graph

Daily Weather History Graph

Search for Another Location

Airport:

Trip Planner

Search our weather history database for the weather conditions in past years. The results will help you decide how hot, cold, wet, or windy it might be!

Date:

Astronomy

Aug. 07, 2013 Rise Set
Actual Time 6:26 AM CDT 8:16 PM CDT
Civil Twilight 5:58 AM CDT 8:44 PM CDT
Nautical Twilight 5:24 AM CDT 9:18 PM CDT
Astronomical Twilight 4:47 AM CDT 9:54 PM CDT
Moon 7:13 AM CDT (8/7) 8:27 PM CDT (8/7)
Length of Visible Light 14h 46m
Length of Day
13h 49m
New Moon, 1% of the Moon is Illuminated
Aug 7
New Moon
Aug 14
First Quarter
Aug 20
Full
Aug 28
Last Quarter
Sep 5
New

Hourly Weather History & Observations

Time (CDT) Temp. Heat Index Dew Point Humidity Pressure Visibility Wind Dir Wind Speed Gust Speed Precip Events Conditions
12:15 AM 78.8 °F - 75.2 °F 89% 29.88 in 10.0 mi South 8.1 mph - N/A   Clear
12:35 AM 80.6 °F 86.2 °F 75.2 °F 84% 29.88 in 10.0 mi South 9.2 mph - N/A   Clear
12:55 AM 80.6 °F 86.2 °F 75.2 °F 84% 29.88 in 10.0 mi South 10.4 mph - N/A   Clear
1:15 AM 80.6 °F 85.4 °F 73.4 °F 79% 29.87 in 10.0 mi South 9.2 mph - N/A   Clear
1:35 AM 80.6 °F 85.4 °F 73.4 °F 79% 29.86 in 10.0 mi South 9.2 mph - N/A   Clear
1:55 AM 80.6 °F 85.4 °F 73.4 °F 79% 29.84 in 10.0 mi South 10.4 mph - N/A   Clear
2:15 AM 80.6 °F 85.4 °F 73.4 °F 79% 29.83 in 10.0 mi South 10.4 mph - N/A   Clear
2:35 AM 78.8 °F - 73.4 °F 83% 29.84 in 10.0 mi SSW 9.2 mph - N/A   Clear
2:55 AM 78.8 °F - 73.4 °F 83% 29.84 in 10.0 mi SSW 11.5 mph - N/A   Clear
3:15 AM 78.8 °F - 73.4 °F 83% 29.84 in 10.0 mi SSW 9.2 mph - N/A   Scattered Clouds
3:35 AM 78.8 °F - 73.4 °F 83% 29.85 in 10.0 mi SSW 9.2 mph - N/A   Mostly Cloudy
3:55 AM 78.8 °F - 73.4 °F 83% 29.86 in 10.0 mi SSW 9.2 mph - N/A   Overcast
4:15 AM 78.8 °F - 73.4 °F 83% 29.90 in 10.0 mi West 10.4 mph 19.6 mph N/A   Overcast
4:35 AM 78.8 °F - 73.4 °F 83% 29.91 in 10.0 mi WNW 8.1 mph - N/A   Scattered Clouds
4:55 AM 77.0 °F - 71.6 °F 83% 29.90 in 10.0 mi NNW 6.9 mph - N/A Thunderstorm Clear
5:15 AM 75.2 °F - 69.8 °F 83% 29.90 in 10.0 mi NW 9.2 mph 16.1 mph N/A   Mostly Cloudy
5:35 AM 73.4 °F - 69.8 °F 88% 29.88 in 10.0 mi North 4.6 mph - N/A Rain Light Rain
5:55 AM 73.4 °F - 69.8 °F 88% 29.88 in 10.0 mi Calm Calm - N/A   Scattered Clouds
6:15 AM 71.6 °F - 69.8 °F 94% 29.88 in 10.0 mi Calm Calm - N/A   Scattered Clouds
6:35 AM 71.6 °F - 69.8 °F 94% 29.90 in 10.0 mi Calm Calm - N/A   Scattered Clouds
6:55 AM 71.6 °F - 71.6 °F 100% 29.92 in 10.0 mi Calm Calm - N/A   Mostly Cloudy
7:15 AM 71.6 °F - 71.6 °F 100% 29.93 in 10.0 mi South 3.5 mph - N/A   Overcast
7:35 AM 71.6 °F - 71.6 °F 100% 29.95 in 10.0 mi Calm Calm - N/A Rain , Thunderstorm Light Thunderstorms and Rain
7:55 AM 71.6 °F - 71.6 °F 100% 29.95 in 10.0 mi SE 6.9 mph - 0.01 in Rain , Thunderstorm Light Thunderstorms and Rain
8:15 AM 71.6 °F - 71.6 °F 100% 29.98 in 7.0 mi ENE 11.5 mph - 0.02 in Rain , Thunderstorm Rain
8:35 AM 71.6 °F - 69.8 °F 94% 29.97 in 5.0 mi East 10.4 mph - 0.07 in Rain , Thunderstorm Thunderstorms and Rain
8:55 AM 71.6 °F - 69.8 °F 94% 29.99 in 10.0 mi ENE 6.9 mph - 0.08 in Rain Light Rain
9:15 AM 69.8 °F - 69.8 °F 100% 29.96 in 10.0 mi East 9.2 mph - 0.01 in Rain , Thunderstorm Light Thunderstorms and Rain
9:35 AM 69.8 °F - 69.8 °F 100% 29.97 in 10.0 mi ESE 10.4 mph 16.1 mph 0.01 in   Scattered Clouds
9:55 AM 69.8 °F - 69.8 °F 100% 29.95 in 10.0 mi ESE 9.2 mph - 0.01 in Rain Light Rain
10:15 AM 69.8 °F - 69.8 °F 100% 29.95 in 10.0 mi ESE 12.7 mph 17.3 mph N/A   Light Drizzle
10:35 AM 69.8 °F - 69.8 °F 100% 29.97 in 10.0 mi East 6.9 mph 17.3 mph N/A   Mostly Cloudy
10:55 AM 71.6 °F - 69.8 °F 94% 29.96 in 10.0 mi ESE 9.2 mph - N/A   Scattered Clouds
11:15 AM 71.6 °F - 69.8 °F 94% 29.96 in 10.0 mi SE 10.4 mph - N/A Thunderstorm Scattered Clouds
11:35 AM 71.6 °F - 69.8 °F 94% 29.96 in 10.0 mi SE 6.9 mph - N/A Rain Light Rain
11:55 AM 71.6 °F - 69.8 °F 94% 29.96 in 10.0 mi SSE 3.5 mph - N/A   Scattered Clouds
12:15 PM 71.6 °F - 69.8 °F 94% 29.96 in 10.0 mi SE 3.5 mph - N/A   Scattered Clouds
12:35 PM 71.6 °F - 69.8 °F 94% 29.96 in 10.0 mi SE 4.6 mph - N/A   Mostly Cloudy
12:55 PM 73.4 °F - 71.6 °F 94% 29.96 in 10.0 mi SSE 6.9 mph - N/A Rain Light Rain
1:15 PM 73.4 °F - 71.6 °F 94% 29.93 in 10.0 mi SE 5.8 mph - N/A Rain Light Rain
1:35 PM 75.2 °F - 71.6 °F 89% 29.92 in 10.0 mi NE 3.5 mph - N/A   Scattered Clouds
1:55 PM 77.0 °F - 71.6 °F 83% 29.93 in 10.0 mi Calm Calm - N/A   Clear
2:15 PM 77.0 °F - 71.6 °F 83% 29.93 in 10.0 mi Calm Calm - N/A   Clear
2:35 PM 77.0 °F - 71.6 °F 83% 29.93 in 10.0 mi Calm Calm - N/A   Clear
2:55 PM 77.0 °F - 71.6 °F 83% 29.92 in 10.0 mi Calm Calm - N/A   Clear
3:15 PM 77.0 °F - 71.6 °F 83% 29.91 in 10.0 mi Calm Calm - N/A   Scattered Clouds
3:35 PM 75.2 °F - 71.6 °F 89% 29.91 in 10.0 mi Calm Calm - N/A   Clear
3:55 PM 75.2 °F - 71.6 °F 89% 29.92 in 10.0 mi Calm Calm - N/A   Clear
4:15 PM 77.0 °F - 73.4 °F 89% 29.92 in 10.0 mi NE 3.5 mph - N/A   Clear
4:35 PM 77.0 °F - 73.4 °F 89% 29.93 in 10.0 mi NE 4.6 mph - N/A   Clear
4:55 PM 77.0 °F - 73.4 °F 89% 29.92 in 10.0 mi NNE 5.8 mph - N/A   Clear
5:15 PM 78.8 °F - 73.4 °F 83% 29.92 in 10.0 mi NE 8.1 mph - N/A   Clear
5:35 PM 78.8 °F - 73.4 °F 83% 29.93 in 10.0 mi Calm Calm - N/A   Clear
5:55 PM 78.8 °F - 73.4 °F 83% 29.92 in 10.0 mi North 6.9 mph - N/A   Clear
6:15 PM 78.8 °F - 73.4 °F 83% 29.92 in 10.0 mi NNE 5.8 mph - N/A   Clear
6:35 PM 78.8 °F - 73.4 °F 83% 29.92 in 10.0 mi NNE 5.8 mph - N/A   Clear
6:55 PM 78.8 °F - 73.4 °F 83% 29.92 in 10.0 mi NNE 6.9 mph - N/A   Scattered Clouds
7:15 PM 77.0 °F - 73.4 °F 89% 29.92 in 10.0 mi NNE 4.6 mph - N/A   Scattered Clouds
7:35 PM 77.0 °F - 73.4 °F 89% 29.91 in 10.0 mi NNE 4.6 mph - N/A   Mostly Cloudy
7:55 PM 77.0 °F - 73.4 °F 89% 29.92 in 10.0 mi Calm Calm - N/A   Overcast
8:15 PM 77.0 °F - 71.6 °F 83% 29.92 in 10.0 mi Calm Calm - N/A   Overcast
8:35 PM 75.2 °F - 71.6 °F 89% 29.93 in 10.0 mi Calm Calm - N/A   Mostly Cloudy
8:55 PM 73.4 °F - 71.6 °F 94% 29.93 in 10.0 mi NE 3.5 mph - N/A   Mostly Cloudy
9:15 PM 73.4 °F - 71.6 °F 94% 29.94 in 10.0 mi Calm Calm - N/A   Overcast
9:35 PM 73.4 °F - 71.6 °F 94% 29.94 in 10.0 mi East 3.5 mph - N/A   Overcast
9:55 PM 73.4 °F - 71.6 °F 94% 29.95 in 10.0 mi East 3.5 mph - N/A   Mostly Cloudy
10:15 PM 73.4 °F - 71.6 °F 94% 29.95 in 10.0 mi East 5.8 mph - N/A   Mostly Cloudy
10:35 PM 73.4 °F - 71.6 °F 94% 29.94 in 10.0 mi East 5.8 mph - N/A   Scattered Clouds
10:55 PM 73.4 °F - 71.6 °F 94% 29.95 in 10.0 mi ESE 4.6 mph - N/A   Scattered Clouds
11:15 PM 73.4 °F - 71.6 °F 94% 29.95 in 10.0 mi NE 3.5 mph - N/A   Scattered Clouds
11:35 PM 73.4 °F - 71.6 °F 94% 29.93 in 10.0 mi ENE 4.6 mph - N/A   Scattered Clouds
11:55 PM 73.4 °F - 71.6 °F 94% 29.93 in 10.0 mi East 5.8 mph - N/A   Scattered Clouds